Home > Weather > Bühl > Past weeks

Flag for Germany Past Weather in Bühl, Baden-Württemberg, Germany — Yesterday and Last 2 Weeks

Now
70 °F

Scattered clouds.


Feels Like: 70 °F
Forecast: 54 / 73 °F
Wind: 8 mph from Southwest

Location: Karlsruhe - Baden Wurttemberg

Current Time: Jun 27, 2016 at 1:26:52 PM

Latest Report: Jun 27, 2016 at 12:50 PM


Visibility: N/A

Pressure: 30.15 "Hg

Humidity: 60%

Dew Point: 55 °F

Location of BühlLocation

Past Weather in Bühl — Graph

°F

Bühl Temperature Yesterday

Maximum temperature yesterday: 70 °F (at 3:50 PM)
Minimum temperature yesterday: 52 °F (at 5:50 AM)
Average temperature yesterday: 63 °F

High & Low Weather Summary for the Past Weeks

 TemperatureHumidityPressure
High91 °F (Jun 23, 4:20 PM)100% (Jun 12, 10:50 PM)30.27 "Hg (Jun 12, 10:50 PM)
Low50 °F (Jun 20, 4:50 AM)38% (Jun 23, 5:50 PM)29.56 "Hg (Jun 14, 11:50 AM)
Average66 °F79%29.94 "Hg
* Reported Jun 12 11:20 AM — Jun 27 11:50 AM, Bühl, Weather by CustomWeather, © 2016

Note: Actual official high and low records may vary slightly from our data, if they occured in-between our weather recording intervals... More about our weather records

Advertising

Bühl Weather History for the Previous 24 Hours

Scroll right to see more
 ConditionsComfort  
Time TempWeatherWind HumidityBarometerVisibility
11:50 AM
Mon, Jun 27
68 °FPassing clouds.8 mph56%30.15 "HgN/A
11:20 AM66 °FPassing clouds.9 mph60%30.18 "HgN/A
10:50 AM66 °FPassing clouds.9 mph60%30.18 "HgN/A
10:20 AM66 °FSunny.10 mph64%30.18 "Hg10 mi
9:50 AM64 °FSunny.9 mph64%30.18 "Hg10 mi
9:20 AM64 °FPassing clouds.9 mph68%30.18 "HgN/A
8:50 AM63 °FSunny.8 mph73%30.18 "Hg10 mi
8:20 AM61 °FPassing clouds.6 mph77%30.18 "HgN/A
7:50 AM57 °FPassing clouds.6 mph88%30.18 "HgN/A
7:20 AM55 °FPassing clouds.5 mph94%30.18 "HgN/A
6:50 AM54 °FPassing clouds.6 mph94%30.18 "HgN/A
6:20 AM54 °FClear.5 mph94%30.18 "Hg10 mi
5:50 AM54 °FClear.3 mph88%30.18 "Hg10 mi
5:20 AM52 °FClear.2 mph94%30.18 "Hg10 mi
4:50 AM54 °FClear.3 mph94%30.15 "Hg10 mi
12:20 AM61 °FClear.3 mph77%30.12 "Hg10 mi
11:50 PM
Sun, Jun 26
61 °FPassing clouds.5 mph72%30.12 "HgN/A
11:20 PM63 °FPassing clouds.5 mph68%30.12 "HgN/A
10:50 PM63 °FClear.2 mph68%30.12 "Hg10 mi
10:20 PM64 °FSunny.3 mph64%30.12 "Hg10 mi
9:50 PM64 °FPassing clouds.5 mph64%30.09 "HgN/A
8:50 PM64 °FSunny.5 mph73%30.09 "Hg10 mi
8:20 PM66 °FSunny.3 mph68%30.07 "Hg10 mi
7:50 PM68 °FSunny.3 mph64%30.07 "Hg10 mi
7:20 PM68 °FSunny.5 mph60%30.07 "Hg10 mi
6:50 PM70 °FSunny.5 mph57%30.07 "Hg10 mi
6:20 PM70 °FSunny.3 mph60%30.07 "Hg10 mi
5:50 PM70 °FSunny.3 mph57%30.07 "Hg10 mi
5:20 PM70 °FPassing clouds.5 mph57%30.07 "HgN/A
4:50 PM70 °FSunny.5 mph57%30.07 "Hg10 mi
4:20 PM70 °FPassing clouds.6 mph50%30.07 "HgN/A
3:50 PM70 °FPassing clouds.5 mph53%30.09 "HgN/A
3:20 PM66 °FBroken clouds.5 mph64%30.09 "HgN/A
2:50 PM66 °FSunny.5 mph68%30.09 "Hg10 mi
2:20 PM68 °FScattered showers. Broken clouds.5 mph60%30.09 "HgN/A
1:50 PM68 °FPassing clouds.6 mph60%30.09 "HgN/A
1:20 PM68 °FPassing clouds.6 mph60%30.09 "HgN/A
Weather by CustomWeather, © 2016

See weather overviewHow to use our weather pages